Regional Weather Roundup
Issued by NWS

Home | Current Version | Previous Version | Text Only | Print | Product List | Glossary On
Versions: 1 2 3 4 5 6 7 8 9 10 11 12 13 14 15 16 17 18 19 20 21 22 23 24 25 26 27 28 29 30 31 32 33 34 35 36 37 38 39 40 41 42 43 44 45 46 47 48 49
000
ASUS45 KSLC 301910
RWRUT

UTAH REGIONAL WEATHER ROUNDUP
NATIONAL WEATHER SERVICE SALT LAKE CITY UT
100 PM MDT TUE SEP 30 2014

UTZ001>011-023>025-302000-

NORTHERN UTAH

CITY           SKY/WX    TMP DP  RH WIND       PRES   REMARKS
HILL AFB       PTSUNNY   57  45  65 VRB3      29.98F
LOGAN          NOT AVBL
OGDEN          CLOUDY    58  46  64 W6        29.96F
PROVO AIRPORT  PTSUNNY   61  41  48 VRB5      29.99F
SALT LAKE CITY LGT RAIN  61  41  47 CALM      29.96F
VERNAL         CLOUDY    57  45  64 SE6       29.96S
WENDOVER       CLOUDY    61  43  51 S7        29.97F
HEBER CITY     PTSUNNY   57  37  47 SW13      29.99S
WEST JORDAN    PTSUNNY   61  43  51 SE7       29.98F

$$

UTZ012>022-026-027-302000-

SOUTHERN UTAH

CITY           SKY/WX    TMP DP  RH WIND       PRES   REMARKS
BRYCE CANYON   MOSUNNY   56  38  50 NW10      30.10F
CEDAR CITY     SUNNY     63  38  39 N6        30.03F
MILFORD        SUNNY     64  40  41 S8        30.01F
MOAB/CYNLANDS  SUNNY     64  44  48 VRB3      29.95F
PRICE          PTSUNNY   55  43  63 E6        30.00F
ST GEORGE      MOCLDY    73  41  31 CALM      29.95F
KANAB            N/A     66  41  39 S13       30.03F

$$

REGIONAL REPORTS     COLORADO/ARIZONA

CITY           SKY/WX    TMP DP  RH WIND       PRES   REMARKS
CRAIG, CO      CLOUDY    55  37  50 W18G28    29.97F
GRAND JUNCTION MOSUNNY   59  43  55 NW3       29.98F
RIFLE          PTSUNNY   55  42  61 CALM      29.99F
MONTROSE       CLOUDY    57  42  57 CALM      30.03F
CORTEZ         PTSUNNY   60  39  45 SW7       30.04F
PAGE, AZ       NOT AVBL
GRAND CANYON   SUNNY     63  35  35 W9G18     30.10F
KINGMAN        SUNNY     78  39  24 NE6       29.97F
FLAGSTAFF      SUNNY     62  33  33 W8        30.11F

$$

REGIONAL REPORTS    NEVADA/IDAHO/WYOMING

CITY           SKY/WX    TMP DP  RH WIND       PRES   REMARKS
LAS VEGAS, NV  MOSUNNY   80  38  22 VRB5      29.87F
ELY            PTSUNNY   59  36  42 CALM      30.05F
ELKO           PTSUNNY   61  42  49 SW10      30.00F
POCATELLO, ID  CLOUDY    55  51  86 SW22      29.93F
BURLEY         PTSUNNY   57  47  69 W16G28    29.95S
EVANSTON, WY   CLOUDY    48  39  71 SW20      30.01F
ROCK SPRINGS   LGT RAIN  48  40  73 W21       29.95F

$$


USA.gov is the U.S. government's official web portal to all federal, state and local government web resources and services.